User: anonymous   Login
Location: ?????????
(38.5999°N, 22.7695°E)
Time: 13:05:21
(UTC+00:00)
Language:

SL-4 R/B - Orbit

View from above orbital plane
View from above orbital plane
View from above satellite
View from above satellite

Ground track
Ground track

The orbit data is extracted from the following two-line orbital elements,

1 39679U 14021B   24195.79370193  .00014687  00000-0  53142-3 0  9996
2 39679  51.6077   2.8687 0135426  91.9781 269.6710 15.20391481563817
Epoch (UTC): 13 July 2024 19:02:55
Eccentricity: 0.0135426
inclination: 51.6077°
perigee height: 411 km
apogee height: 598 km
right ascension of ascending node: 2.8687°
argument of perigee: 91.9781°
revolutions per day: 15.20391481
mean anomaly at epoch: 269.6710°
orbit number at epoch: 56381

The dashed part of the orbit path shows where the satellite is in the earth's shadow,  

DLR